Time,TemperatureF,DewpointF,PressureIn,WindDirection,WindDirectionDegrees,WindSpeedMPH,WindSpeedGustMPH,Humidity,HourlyPrecipIn,Conditions,Clouds,dailyrainin,SoftwareType,DateUTC
2013-03-08 00:02:00,56.0,55.0,30.17,North,7999,0.0,62.0,96,-99.99,,,-99.99,,2013-03-08 05:02:00,
2013-03-08 00:12:00,55.0,54.0,30.16,SE,144,5.0,5.0,96,-99.99,,,-99.99,,2013-03-08 05:12:00,
2013-03-08 00:22:00,55.0,54.0,30.16,SE,144,5.0,5.0,96,-99.99,,,-99.99,,2013-03-08 05:22:00,
2013-03-08 00:33:00,54.0,53.0,30.16,NNE,14,5.0,5.0,96,-99.99,,,-99.99,,2013-03-08 05:33:00,
2013-03-08 00:42:00,54.0,53.0,30.15,NE,53,3.0,5.0,96,-99.99,,,-99.99,,2013-03-08 05:42:00,
2013-03-08 00:52:00,54.0,53.0,30.15,NNE,18,4.0,4.0,96,-99.99,,,-99.99,,2013-03-08 05:52:00,
2013-03-08 01:02:00,54.0,53.0,30.15,NNE,18,4.0,4.0,96,-99.99,,,-99.99,,2013-03-08 06:02:00,
2013-03-08 01:11:00,54.0,53.0,30.15,North,7999,0.0,4.0,96,-99.99,,,-99.99,,2013-03-08 06:11:00,
2013-03-08 01:22:00,54.0,53.0,30.15,North,7999,0.0,4.0,96,-99.99,,,-99.99,,2013-03-08 06:22:00,
2013-03-08 01:32:00,53.0,52.0,30.15,NNW,333,14.0,45.0,96,-99.99,,,-99.99,,2013-03-08 06:32:00,
2013-03-08 01:42:00,53.0,52.0,30.15,WSW,248,30.0,42.0,96,-99.99,,,-99.99,,2013-03-08 06:42:00,
2013-03-08 01:52:00,53.0,52.0,30.15,North,7999,0.0,42.0,96,-99.99,,,-99.99,,2013-03-08 06:52:00,
2013-03-08 02:01:00,53.0,52.0,30.15,North,7999,0.0,42.0,96,-99.99,,,-99.99,,2013-03-08 07:01:00,
2013-03-08 02:11:00,53.0,52.0,30.14,NNW,342,3.0,4.0,96,-99.99,,,-99.99,,2013-03-08 07:11:00,
2013-03-08 02:22:00,53.0,52.0,30.14,NNW,342,3.0,4.0,96,-99.99,,,-99.99,,2013-03-08 07:22:00,
2013-03-08 02:32:00,53.0,52.0,30.14,North,357,2.0,2.0,96,-99.99,,,-99.99,,2013-03-08 07:32:00,
2013-03-08 02:42:00,52.0,51.0,30.14,North,7999,0.0,2.0,96,-99.99,,,-99.99,,2013-03-08 07:42:00,
2013-03-08 02:52:00,52.0,51.0,30.14,North,7999,0.0,2.0,96,-99.99,,,-99.99,,2013-03-08 07:52:00,
2013-03-08 03:01:00,52.0,51.0,30.14,North,7999,0.0,2.0,96,-99.99,,,-99.99,,2013-03-08 08:01:00,
2013-03-08 03:11:00,52.0,51.0,30.13,North,349,3.0,3.0,96,-99.99,,,-99.99,,2013-03-08 08:11:00,
2013-03-08 03:22:00,52.0,51.0,30.13,North,349,3.0,3.0,96,-99.99,,,-99.99,,2013-03-08 08:22:00,
2013-03-08 03:32:00,52.0,51.0,30.13,North,349,3.0,3.0,96,-99.99,,,-99.99,,2013-03-08 08:32:00,
2013-03-08 03:42:00,52.0,51.0,30.13,North,7999,0.0,3.0,97,-99.99,,,-99.99,,2013-03-08 08:42:00,
2013-03-08 03:52:00,52.0,51.0,30.13,North,7999,0.0,3.0,97,-99.99,,,-99.99,,2013-03-08 08:52:00,
2013-03-08 04:03:00,52.0,51.0,30.13,North,7999,0.0,3.0,97,-99.99,,,-99.99,,2013-03-08 09:03:00,
2013-03-08 04:11:00,52.0,51.0,30.13,West,264,6.0,56.0,97,-99.99,,,-99.99,,2013-03-08 09:11:00,
2013-03-08 04:22:00,52.0,51.0,30.13,West,264,6.0,56.0,97,-99.99,,,-99.99,,2013-03-08 09:22:00,
2013-03-08 04:32:00,51.0,51.0,30.13,West,273,8.0,83.0,97,-99.99,,,-99.99,,2013-03-08 09:32:00,
2013-03-08 04:42:00,51.0,51.0,30.13,ESE,120,35.0,44.0,97,-99.99,,,-99.99,,2013-03-08 09:42:00,
2013-03-08 04:52:00,51.0,50.0,30.13,SSE,163,8.0,30.0,97,-99.99,,,-99.99,,2013-03-08 09:52:00,
2013-03-08 05:01:00,51.0,50.0,30.13,SSE,163,8.0,30.0,97,-99.99,,,-99.99,,2013-03-08 10:01:00,
2013-03-08 05:11:00,51.0,50.0,30.13,WNW,288,8.0,31.0,97,-99.99,,,-99.99,,2013-03-08 10:11:00,
2013-03-08 05:21:00,51.0,50.0,30.13,WNW,288,8.0,31.0,97,-99.99,,,-99.99,,2013-03-08 10:21:00,
2013-03-08 05:32:00,51.0,50.0,30.13,SSW,208,7.0,31.0,97,-99.99,,,-99.99,,2013-03-08 10:32:00,
2013-03-08 05:42:00,51.0,50.0,30.13,SSE,151,30.0,30.0,97,-99.99,,,-99.99,,2013-03-08 10:42:00,
2013-03-08 05:52:00,50.0,50.0,30.13,SSW,194,37.0,55.0,96,-99.99,,,-99.99,,2013-03-08 10:52:00,
2013-03-08 06:01:00,50.0,50.0,30.13,SSW,194,37.0,55.0,96,-99.99,,,-99.99,,2013-03-08 11:01:00,
2013-03-08 06:11:00,50.0,50.0,30.14,NW,325,4.0,5.0,96,-99.99,,,-99.99,,2013-03-08 11:11:00,
2013-03-08 06:22:00,50.0,50.0,30.14,NW,325,4.0,5.0,96,-99.99,,,-99.99,,2013-03-08 11:22:00,
2013-03-08 06:32:00,50.0,50.0,30.14,NW,325,4.0,5.0,96,-99.99,,,-99.99,,2013-03-08 11:32:00,
2013-03-08 06:42:00,50.0,50.0,30.14,WNW,286,4.0,5.0,97,-99.99,,,-99.99,,2013-03-08 11:42:00,
2013-03-08 06:52:00,51.0,50.0,30.15,SSW,195,4.0,6.0,97,-99.99,,,-99.99,,2013-03-08 11:52:00,
2013-03-08 07:02:00,51.0,50.0,30.15,SSW,195,4.0,6.0,97,-99.99,,,-99.99,,2013-03-08 12:02:00,
2013-03-08 07:11:00,50.0,50.0,30.15,South,186,5.0,7.0,96,-99.99,,,-99.99,,2013-03-08 12:11:00,
2013-03-08 07:22:00,50.0,50.0,30.15,South,186,5.0,7.0,96,-99.99,,,-99.99,,2013-03-08 12:22:00,
2013-03-08 07:32:00,50.0,49.0,30.15,WSW,239,5.0,7.0,96,-99.99,,,-99.99,,2013-03-08 12:32:00,
2013-03-08 07:43:00,51.0,50.0,30.16,WSW,255,5.0,7.0,96,-99.99,,,-99.99,,2013-03-08 12:43:00,
2013-03-08 07:53:00,52.0,51.0,30.16,SSE,163,4.0,6.0,95,-99.99,,,-99.99,,2013-03-08 12:53:00,
2013-03-08 08:02:00,52.0,51.0,30.16,SSE,163,4.0,6.0,95,-99.99,,,-99.99,,2013-03-08 13:02:00,
2013-03-08 08:11:00,53.0,52.0,30.17,SSE,163,4.0,6.0,94,-99.99,,,-99.99,,2013-03-08 13:11:00,
2013-03-08 08:22:00,53.0,52.0,30.17,SSE,163,4.0,6.0,94,-99.99,,,-99.99,,2013-03-08 13:22:00,
2013-03-08 08:32:00,55.0,52.0,30.18,WSW,257,4.0,6.0,91,-99.99,,,-99.99,,2013-03-08 13:32:00,
2013-03-08 08:42:00,57.0,53.0,30.18,SSE,164,4.0,7.0,88,-99.99,,,-99.99,,2013-03-08 13:42:00,
2013-03-08 08:52:00,58.0,54.0,30.19,SSW,202,6.0,9.0,84,-99.99,,,-99.99,,2013-03-08 13:52:00,
2013-03-08 09:03:00,58.0,54.0,30.19,SSW,202,6.0,9.0,84,-99.99,,,-99.99,,2013-03-08 14:03:00,
2013-03-08 09:12:00,60.0,54.0,30.19,SW,219,6.0,9.0,81,-99.99,,,-99.99,,2013-03-08 14:12:00,
2013-03-08 09:22:00,60.0,54.0,30.19,SW,219,6.0,9.0,81,-99.99,,,-99.99,,2013-03-08 14:22:00,
2013-03-08 09:32:00,61.0,54.0,30.19,South,183,6.0,10.0,77,-99.99,,,-99.99,,2013-03-08 14:32:00,
2013-03-08 09:42:00,63.0,52.0,30.19,East,80,8.0,13.0,67,-99.99,,,-99.99,,2013-03-08 14:42:00,
2013-03-08 09:53:00,64.0,51.0,30.19,East,84,7.0,11.0,62,-99.99,,,-99.99,,2013-03-08 14:53:00,
2013-03-08 10:03:00,64.0,51.0,30.19,East,84,7.0,11.0,62,-99.99,,,-99.99,,2013-03-08 15:03:00,
2013-03-08 10:12:00,65.0,50.0,30.19,NE,35,9.0,13.0,57,-99.99,,,-99.99,,2013-03-08 15:12:00,
2013-03-08 10:22:00,65.0,50.0,30.19,NE,35,9.0,13.0,57,-99.99,,,-99.99,,2013-03-08 15:22:00,
2013-03-08 10:32:00,66.0,49.0,30.19,NE,45,9.0,13.0,54,-99.99,,,-99.99,,2013-03-08 15:32:00,
2013-03-08 10:42:00,67.0,47.0,30.20,NNE,31,10.0,14.0,48,-99.99,,,-99.99,,2013-03-08 15:42:00,
2013-03-08 10:53:00,68.0,45.0,30.20,NE,35,9.0,14.0,44,-99.99,,,-99.99,,2013-03-08 15:53:00,
2013-03-08 11:02:00,68.0,45.0,30.20,NE,35,9.0,14.0,44,-99.99,,,-99.99,,2013-03-08 16:02:00,
2013-03-08 11:11:00,68.0,45.0,30.19,NE,50,9.0,14.0,43,-99.99,,,-99.99,,2013-03-08 16:11:00,
2013-03-08 11:22:00,68.0,45.0,30.19,NE,50,9.0,14.0,43,-99.99,,,-99.99,,2013-03-08 16:22:00,
2013-03-08 11:32:00,69.0,46.0,30.19,ESE,111,6.0,11.0,43,-99.99,,,-99.99,,2013-03-08 16:32:00,
2013-03-08 11:42:00,69.0,46.0,30.19,ESE,111,6.0,11.0,43,-99.99,,,-99.99,,2013-03-08 16:42:00,
2013-03-08 11:52:00,69.0,46.0,30.18,East,87,6.0,13.0,42,-99.99,,,-99.99,,2013-03-08 16:52:00,
2013-03-08 12:03:00,69.0,46.0,30.18,East,87,6.0,13.0,42,-99.99,,,-99.99,,2013-03-08 17:03:00,
2013-03-08 12:12:00,69.0,46.0,30.18,SW,229,4.0,13.0,43,-99.99,,,-99.99,,2013-03-08 17:12:00,
2013-03-08 12:22:00,69.0,46.0,30.18,SW,229,4.0,13.0,43,-99.99,,,-99.99,,2013-03-08 17:22:00,
2013-03-08 12:32:00,70.0,46.0,30.17,WSW,241,6.0,12.0,43,-99.99,,,-99.99,,2013-03-08 17:32:00,
2013-03-08 12:42:00,70.0,46.0,30.16,WNW,291,7.0,14.0,42,-99.99,,,-99.99,,2013-03-08 17:42:00,
2013-03-08 12:52:00,70.0,46.0,30.16,West,275,7.0,14.0,42,-99.99,,,-99.99,,2013-03-08 17:52:00,
2013-03-08 13:02:00,70.0,46.0,30.16,West,275,7.0,14.0,42,-99.99,,,-99.99,,2013-03-08 18:02:00,
2013-03-08 13:12:00,71.0,46.0,30.15,SW,229,6.0,12.0,40,-99.99,,,-99.99,,2013-03-08 18:12:00,
2013-03-08 13:22:00,71.0,46.0,30.15,SW,229,6.0,12.0,40,-99.99,,,-99.99,,2013-03-08 18:22:00,
2013-03-08 13:32:00,71.0,46.0,30.14,NW,306,7.0,11.0,40,-99.99,,,-99.99,,2013-03-08 18:32:00,
2013-03-08 13:42:00,71.0,46.0,30.13,WNW,296,6.0,11.0,40,-99.99,,,-99.99,,2013-03-08 18:42:00,
2013-03-08 13:52:00,71.0,46.0,30.13,NW,310,8.0,14.0,39,-99.99,,,-99.99,,2013-03-08 18:52:00,
2013-03-08 14:01:00,71.0,46.0,30.13,NW,310,8.0,14.0,39,-99.99,,,-99.99,,2013-03-08 19:01:00,
2013-03-08 14:11:00,72.0,46.0,30.12,WSW,246,5.0,10.0,40,-99.99,,,-99.99,,2013-03-08 19:11:00,
2013-03-08 14:22:00,72.0,46.0,30.12,WSW,246,5.0,10.0,40,-99.99,,,-99.99,,2013-03-08 19:22:00,
2013-03-08 14:32:00,72.0,46.0,30.12,West,278,6.0,13.0,38,-99.99,,,-99.99,,2013-03-08 19:32:00,
2013-03-08 14:42:00,73.0,46.0,30.12,West,269,6.0,11.0,38,-99.99,,,-99.99,,2013-03-08 19:42:00,
2013-03-08 14:52:00,73.0,46.0,30.11,WNW,282,6.0,14.0,37,-99.99,,,-99.99,,2013-03-08 19:52:00,
2013-03-08 15:01:00,73.0,46.0,30.11,WNW,282,6.0,14.0,37,-99.99,,,-99.99,,2013-03-08 20:01:00,
2013-03-08 15:11:00,73.0,44.0,30.11,NW,312,7.0,12.0,35,-99.99,,,-99.99,,2013-03-08 20:11:00,
2013-03-08 15:22:00,73.0,44.0,30.11,NW,312,7.0,12.0,35,-99.99,,,-99.99,,2013-03-08 20:22:00,
2013-03-08 15:32:00,73.0,44.0,30.11,NW,312,7.0,12.0,35,-99.99,,,-99.99,,2013-03-08 20:32:00,
2013-03-08 15:42:00,74.0,43.0,30.10,SW,231,7.0,14.0,32,-99.99,,,-99.99,,2013-03-08 20:42:00,
2013-03-08 15:53:00,74.0,43.0,30.10,WNW,302,6.0,12.0,32,-99.99,,,-99.99,,2013-03-08 20:53:00,
2013-03-08 16:02:00,74.0,43.0,30.10,WNW,302,6.0,12.0,32,-99.99,,,-99.99,,2013-03-08 21:02:00,
2013-03-08 16:12:00,75.0,43.0,30.09,WNW,290,8.0,12.0,32,-99.99,,,-99.99,,2013-03-08 21:12:00,
2013-03-08 16:22:00,75.0,43.0,30.09,WNW,290,8.0,12.0,32,-99.99,,,-99.99,,2013-03-08 21:22:00,
2013-03-08 16:32:00,75.0,43.0,30.09,SSE,164,4.0,12.0,31,-99.99,,,-99.99,,2013-03-08 21:32:00,
2013-03-08 16:42:00,73.0,52.0,30.09,East,94,8.0,13.0,47,-99.99,,,-99.99,,2013-03-08 21:42:00,
2013-03-08 16:52:00,72.0,52.0,30.09,East,90,9.0,14.0,49,-99.99,,,-99.99,,2013-03-08 21:52:00,
2013-03-08 17:02:00,72.0,52.0,30.09,East,90,9.0,14.0,49,-99.99,,,-99.99,,2013-03-08 22:02:00,
2013-03-08 17:11:00,71.0,52.0,30.10,East,85,10.0,14.0,50,-99.99,,,-99.99,,2013-03-08 22:11:00,
2013-03-08 17:22:00,71.0,52.0,30.10,East,85,10.0,14.0,50,-99.99,,,-99.99,,2013-03-08 22:22:00,
2013-03-08 17:32:00,71.0,52.0,30.10,East,87,9.0,14.0,51,-99.99,,,-99.99,,2013-03-08 22:32:00,
2013-03-08 17:42:00,71.0,52.0,30.10,East,87,9.0,14.0,51,-99.99,,,-99.99,,2013-03-08 22:42:00,
2013-03-08 17:53:00,70.0,51.0,30.11,ENE,75,8.0,12.0,51,-99.99,,,-99.99,,2013-03-08 22:53:00,
2013-03-08 18:02:00,70.0,51.0,30.11,ENE,75,8.0,12.0,51,-99.99,,,-99.99,,2013-03-08 23:02:00,
2013-03-08 18:12:00,69.0,51.0,30.11,ENE,75,7.0,11.0,52,-99.99,,,-99.99,,2013-03-08 23:12:00,
2013-03-08 18:22:00,69.0,51.0,30.11,ENE,75,7.0,11.0,52,-99.99,,,-99.99,,2013-03-08 23:22:00,
2013-03-08 18:32:00,68.0,51.0,30.12,East,91,8.0,12.0,54,-99.99,,,-99.99,,2013-03-08 23:32:00,
2013-03-08 18:42:00,67.0,51.0,30.12,ENE,67,8.0,12.0,56,-99.99,,,-99.99,,2013-03-08 23:42:00,
2013-03-08 18:53:00,66.0,52.0,30.12,ENE,58,7.0,12.0,59,-99.99,,,-99.99,,2013-03-08 23:53:00,
2013-03-08 19:00:00,65.0,52.0,30.13,ENE,64,6.0,10.0,63,-99.99,,,-99.99,,2013-03-09 00:00:00,
2013-03-08 19:02:00,66.0,52.0,30.12,ENE,58,7.0,12.0,59,-99.99,,,-99.99,,2013-03-09 00:02:00,
2013-03-08 19:12:00,65.0,52.0,30.12,East,93,5.0,9.0,62,-99.99,,,-99.99,,2013-03-09 00:12:00,
2013-03-08 19:22:00,65.0,52.0,30.12,East,93,5.0,9.0,62,-99.99,,,-99.99,,2013-03-09 00:22:00,
2013-03-08 19:32:00,65.0,52.0,30.13,ENE,64,6.0,10.0,63,-99.99,,,-99.99,,2013-03-09 00:32:00,
2013-03-08 19:42:00,65.0,52.0,30.13,ENE,64,6.0,10.0,63,-99.99,,,-99.99,,2013-03-09 00:42:00,
2013-03-08 19:52:00,65.0,52.0,30.13,ENE,64,6.0,10.0,63,-99.99,,,-99.99,,2013-03-09 00:52:00,
2013-03-08 20:42:00,62.0,54.0,30.15,NE,40,4.0,5.0,74,-99.99,,,-99.99,,2013-03-09 01:42:00,
2013-03-08 20:52:00,62.0,54.0,30.15,NE,40,4.0,5.0,74,-99.99,,,-99.99,,2013-03-09 01:52:00,
2013-03-08 21:01:00,62.0,54.0,30.15,NE,40,4.0,5.0,74,-99.99,,,-99.99,,2013-03-09 02:01:00,
2013-03-08 21:11:00,62.0,54.0,30.15,NE,40,4.0,5.0,74,-99.99,,,-99.99,,2013-03-09 02:11:00,
2013-03-08 21:21:00,59.0,55.0,30.15,SSW,205,4.0,5.0,87,-99.99,,,-99.99,,2013-03-09 02:21:00,
2013-03-08 21:31:00,59.0,55.0,30.15,SSW,205,4.0,5.0,87,-99.99,,,-99.99,,2013-03-09 02:31:00,
2013-03-08 21:41:00,58.0,54.0,30.16,NW,326,5.0,12.0,87,-99.99,,,-99.99,,2013-03-09 02:41:00,
2013-03-08 21:51:00,58.0,55.0,30.17,NE,36,4.0,6.0,88,-99.99,,,-99.99,,2013-03-09 02:51:00,
2013-03-08 22:01:00,58.0,55.0,30.17,NE,36,4.0,6.0,88,-99.99,,,-99.99,,2013-03-09 03:01:00,
2013-03-08 22:11:00,58.0,55.0,30.16,NE,34,3.0,4.0,89,-99.99,,,-99.99,,2013-03-09 03:11:00,
2013-03-08 22:22:00,58.0,55.0,30.16,NE,34,3.0,4.0,89,-99.99,,,-99.99,,2013-03-09 03:22:00,
2013-03-08 22:31:00,57.0,55.0,30.16,NNE,29,3.0,4.0,90,-99.99,,,-99.99,,2013-03-09 03:31:00,
2013-03-08 22:41:00,57.0,55.0,30.16,NNE,29,3.0,4.0,90,-99.99,,,-99.99,,2013-03-09 03:41:00,
2013-03-08 22:52:00,56.0,54.0,30.16,NNW,329,4.0,5.0,93,-99.99,,,-99.99,,2013-03-09 03:52:00,
2013-03-08 23:01:00,56.0,54.0,30.16,NNW,329,4.0,5.0,93,-99.99,,,-99.99,,2013-03-09 04:01:00,
2013-03-08 23:11:00,56.0,54.0,30.16,WNW,293,4.0,4.0,94,-99.99,,,-99.99,,2013-03-09 04:11:00,
2013-03-08 23:22:00,56.0,54.0,30.16,WNW,293,4.0,4.0,94,-99.99,,,-99.99,,2013-03-09 04:22:00,
2013-03-08 23:32:00,56.0,54.0,30.16,WNW,287,3.0,4.0,94,-99.99,,,-99.99,,2013-03-09 04:32:00,
2013-03-08 23:42:00,56.0,54.0,30.16,WNW,287,3.0,4.0,94,-99.99,,,-99.99,,2013-03-09 04:42:00,
2013-03-08 23:52:00,56.0,54.0,30.15,South,190,4.0,5.0,94,-99.99,,,-99.99,,2013-03-09 04:52:00,